Location: Newark
(9.2300°N, 12.4600°E)
Time: 15:48:59
(UTC+00:00)

N. Korean satellite - Visible Passes

Search period start: 14 December 2019 00:00
Search period end: 24 December 2019 00:00
Orbit: 455 x 507 km, 97.2° (Epoch: 13 December)

Date Brightness Start Highest point End Pass type
(mag) Time Alt. Az. Time Alt. Az. Time Alt. Az.
15 Dec 6.8 04:37:31 10° NNE 04:40:55 68° ESE 04:44:17 10° S visible
16 Dec 9.1 04:12:43 10° NE 04:15:30 23° E 04:18:17 10° SSE visible
17 Dec 9.7 17:12:33 10° SSW 17:15:22 21° W 17:18:11 10° NW visible
18 Dec 6.5 04:54:34 10° N 04:57:53 54° WNW 05:01:14 10° SSW visible
19 Dec 7.6 04:29:13 10° NNE 04:32:30 47° E 04:35:48 10° S visible
20 Dec 9.6 04:04:46 10° ENE 04:07:05 17° E 04:09:24 10° SE visible
20 Dec 10.4 17:31:18 10° WSW 17:32:24 11° W 17:33:30 10° W visible
22 Dec 6.3 04:46:05 10° N 04:49:28 80° WNW 04:52:53 10° SSW visible
23 Dec 8.4 04:20:57 10° NE 04:24:04 33° E 04:27:12 10° SSE visible
